Powrót do katalogu

STARLINK-31440

AktywnyŁącznośćVLEO
NORAD 58999·PAYLOAD·🇺🇸 United States

Wystrzelony Feb 23, 2024 z Vandenberg Space Force Base

Loading…

Następne Przeloty (najbliższe 24 godziny)

TLE

ŚwieżeSource: CelesTrak SupGP

Epoka: Sep 15, 2026, 01:51 UTC

1 58999C 24036B   26258.07756944  .00012004  00000+0  35446-3 0  2589
2 58999  53.1582 277.0425 0001173  87.6059 109.9854 15.34403531    16

Śledź STARLINK-31440 w czasie rzeczywistym z AllMySat

Download on the App Store